パンスターズ彗星

C/2015 A2 ( PanSTARRS )

English version
Home page
Updated on June 11, 2016

---------------------------------------------------------------------

・ プロフィール

発見日 2015年1月12日
発見光度 21.1等
発見者 Pan-STARRS 1 telescope (Haleakala)

・ 軌道要素

T 2015 Aug. 1.83532 TT                                  MPCW
q   5.3410546            (2000.0)            P               Q
                   Peri.  208.83694     +0.32978273     +0.18575198
                   Node   258.50417     +0.93984512     -0.15710812
e   1.0            Incl.  109.16960     -0.08907576     -0.96995528
From 18 observations 2015 Jan. 12-16.

・ 光度変化

        m1 = 10.0 + 5 logΔ + 10.0 log r

---------------------------------------------------------------------

軌道要素はM.P.E.C. 2015-G03に掲載されたものです。
光度グラフはComet for Windowsで作成したものです。

---------------------------------------------------------------------

Copyright(C) Seiichi Yoshida (comet@aerith.net). All rights reserved.